Location: *
(43.6428°N, 11.5461°E)
Time: 07:42:43
(UTC+00:00)

Meteor 1-11 - Pass Details

Date: 21 October 2019
Orbit: 842 x 885 km, 81.2° (Epoch: 14 November)

Event Time Altitude Azimuth Distance (km) Brightness Sun altitude
Rises 17:01:26 0° 352° (N) 3,476 7.4 -7.9°
Reaches altitude 10° 17:03:54 10° 355° (N) 2,539 6.7 -8.4°
Maximum altitude 17:09:39 64° 77° (ENE) 971 4.3 -9.4°
Drops below altitude 10° 17:15:23 10° 159° (SSE) 2,539 6.5 -10.5°
Sets 17:17:51 0° 163° (SSE) 3,475 7.3 -10.9°
